TimeCST,TemperatureF,Dew PointF,Humidity,Sea Level PressureIn,VisibilityMPH,Wind Direction,Wind SpeedMPH,Gust SpeedMPH,PrecipitationIn,Events,Conditions,WindDirDegrees,DateUTC
12:15 AM,32.0,32.0,100,30.36,10.0,Calm,Calm,-,N/A,,Clear,0,2012-11-15 06:15:00
12:35 AM,32.0,32.0,100,30.34,10.0,Calm,Calm,-,N/A,,Clear,0,2012-11-15 06:35:00
12:55 AM,31.8,31.8,100,30.34,10.0,Calm,Calm,-,N/A,,Clear,0,2012-11-15 06:55:00
1:15 AM,31.5,31.5,100,30.34,10.0,Calm,Calm,-,N/A,,Clear,0,2012-11-15 07:15:00
1:35 AM,30.9,30.9,100,30.34,10.0,Calm,Calm,-,N/A,,Clear,0,2012-11-15 07:35:00
1:55 AM,31.1,31.1,100,30.33,10.0,Calm,Calm,-,N/A,,Clear,0,2012-11-15 07:55:00
2:15 AM,31.1,31.1,100,30.34,7.0,Calm,Calm,-,N/A,,Clear,0,2012-11-15 08:15:00
2:35 AM,30.9,30.9,100,30.34,7.0,Calm,Calm,-,N/A,,Clear,0,2012-11-15 08:35:00
2:55 AM,30.6,30.6,100,30.35,7.0,Calm,Calm,-,N/A,,Clear,0,2012-11-15 08:55:00
3:15 AM,30.4,30.4,100,30.34,10.0,Calm,Calm,-,N/A,,Clear,0,2012-11-15 09:15:00
3:35 AM,30.2,30.2,100,30.35,7.0,Calm,Calm,-,N/A,,Clear,0,2012-11-15 09:35:00
3:55 AM,30.7,30.7,100,30.35,10.0,Calm,Calm,-,N/A,,Clear,0,2012-11-15 09:55:00
4:15 AM,30.6,30.6,100,30.35,7.0,Calm,Calm,-,N/A,,Clear,0,2012-11-15 10:15:00
4:35 AM,30.9,30.9,100,30.35,7.0,Calm,Calm,-,N/A,,Clear,0,2012-11-15 10:35:00
4:55 AM,30.6,30.6,100,30.34,7.0,Calm,Calm,-,N/A,,Clear,0,2012-11-15 10:55:00
5:15 AM,30.2,30.2,100,30.35,7.0,Calm,Calm,-,N/A,,Clear,0,2012-11-15 11:15:00
5:35 AM,30.0,30.0,100,30.34,7.0,Calm,Calm,-,N/A,,Clear,0,2012-11-15 11:35:00
5:55 AM,29.5,29.5,100,30.34,7.0,Calm,Calm,-,N/A,,Clear,0,2012-11-15 11:55:00
6:15 AM,30.0,30.0,100,30.36,10.0,Calm,Calm,-,N/A,,Clear,0,2012-11-15 12:15:00
6:35 AM,30.2,30.2,100,30.36,10.0,Calm,Calm,-,N/A,,Clear,0,2012-11-15 12:35:00
6:55 AM,29.7,29.7,100,30.36,7.0,Calm,Calm,-,N/A,,Clear,0,2012-11-15 12:55:00
7:15 AM,31.3,31.3,100,30.37,7.0,Calm,Calm,-,N/A,,Clear,0,2012-11-15 13:15:00
7:35 AM,32.2,32.2,100,30.37,10.0,Calm,Calm,-,N/A,,Clear,0,2012-11-15 13:35:00
7:55 AM,34.0,34.0,100,30.38,10.0,Calm,Calm,-,N/A,,Clear,0,2012-11-15 13:55:00
8:15 AM,36.9,35.4,95,30.38,10.0,Calm,Calm,-,N/A,,Clear,0,2012-11-15 14:15:00
8:35 AM,40.1,36.7,88,30.39,10.0,North,5.8,-,N/A,,Clear,360,2012-11-15 14:35:00
8:55 AM,42.8,37.2,81,30.39,10.0,NNE,5.8,-,N/A,,Clear,20,2012-11-15 14:55:00
9:15 AM,44.2,35.8,72,30.39,10.0,NNE,3.5,-,N/A,,Clear,20,2012-11-15 15:15:00
9:35 AM,46.4,35.2,65,30.40,10.0,NNE,6.9,-,N/A,,Clear,20,2012-11-15 15:35:00
9:55 AM,48.7,33.6,56,30.39,10.0,NNE,8.1,-,N/A,,Clear,20,2012-11-15 15:55:00
10:15 AM,49.8,32.7,52,30.39,10.0,NNE,8.1,-,N/A,,Clear,30,2012-11-15 16:15:00
10:35 AM,50.7,33.6,52,30.39,10.0,North,5.8,-,N/A,,Clear,10,2012-11-15 16:35:00
10:55 AM,51.1,33.1,50,30.39,10.0,ENE,8.1,-,N/A,,Clear,60,2012-11-15 16:55:00
11:15 AM,52.2,33.8,50,30.38,10.0,NNE,5.8,-,N/A,,Clear,30,2012-11-15 17:15:00
11:35 AM,52.9,33.3,47,30.37,10.0,NNE,5.8,-,N/A,,Clear,30,2012-11-15 17:35:00
11:55 AM,53.6,32.7,45,30.37,10.0,NNE,5.8,-,N/A,,Clear,30,2012-11-15 17:55:00
12:15 PM,55.0,32.7,43,30.36,10.0,North,4.6,-,N/A,,Clear,350,2012-11-15 18:15:00
12:35 PM,55.4,32.2,41,30.35,10.0,North,8.1,-,N/A,,Clear,10,2012-11-15 18:35:00
12:55 PM,55.6,32.0,41,30.34,10.0,North,5.8,-,N/A,,Clear,350,2012-11-15 18:55:00
1:15 PM,56.7,31.8,39,30.33,10.0,NNE,6.9,-,N/A,,Clear,20,2012-11-15 19:15:00
1:35 PM,56.3,30.9,38,30.32,10.0,ENE,4.6,-,N/A,,Clear,60,2012-11-15 19:35:00
1:55 PM,55.6,31.1,39,30.31,10.0,North,8.1,-,N/A,,Clear,10,2012-11-15 19:55:00
2:15 PM,55.6,31.5,40,30.31,10.0,North,6.9,-,N/A,,Clear,10,2012-11-15 20:15:00
2:35 PM,55.4,32.0,41,30.31,10.0,NNE,6.9,-,N/A,,Clear,20,2012-11-15 20:35:00
2:55 PM,55.2,32.2,42,30.32,10.0,NE,4.6,-,N/A,,Clear,40,2012-11-15 20:55:00
3:15 PM,55.4,32.7,42,30.31,10.0,NNE,5.8,-,N/A,,Clear,20,2012-11-15 21:15:00
3:35 PM,54.9,33.3,44,30.31,10.0,NNE,4.6,-,N/A,,Clear,30,2012-11-15 21:35:00
3:55 PM,54.1,34.0,47,30.31,10.0,North,3.5,-,N/A,,Clear,10,2012-11-15 21:55:00
4:15 PM,52.7,36.7,55,30.31,10.0,Calm,Calm,-,N/A,,Clear,0,2012-11-15 22:15:00
4:35 PM,51.8,37.2,58,30.31,10.0,North,3.5,-,N/A,,Clear,10,2012-11-15 22:35:00
4:55 PM,50.4,39.6,66,30.31,10.0,Calm,Calm,-,N/A,,Clear,0,2012-11-15 22:55:00
5:35 PM,45.3,41.2,85,30.31,10.0,Calm,Calm,-,N/A,,Clear,0,2012-11-15 23:35:00
5:55 PM,43.7,41.0,90,30.32,10.0,Calm,Calm,-,N/A,,Clear,0,2012-11-15 23:55:00
6:15 PM,41.9,40.8,96,30.33,10.0,Calm,Calm,-,N/A,,Clear,0,2012-11-16 00:15:00
6:35 PM,41.0,41.0,100,30.33,10.0,Calm,Calm,-,N/A,,Clear,0,2012-11-16 00:35:00
6:55 PM,40.1,40.1,100,30.34,10.0,Calm,Calm,-,N/A,,Clear,0,2012-11-16 00:55:00
7:35 PM,39.0,39.0,100,30.34,10.0,Calm,Calm,-,N/A,,Clear,0,2012-11-16 01:35:00
9:15 PM,36.3,36.3,100,30.36,7.0,Calm,Calm,-,N/A,,Clear,0,2012-11-16 03:15:00
9:35 PM,35.6,35.6,100,30.37,7.0,Calm,Calm,-,N/A,,Clear,0,2012-11-16 03:35:00
9:55 PM,35.8,35.8,100,30.37,10.0,Calm,Calm,-,N/A,,Clear,0,2012-11-16 03:55:00
10:15 PM,35.6,35.6,100,30.37,7.0,Calm,Calm,-,N/A,,Clear,0,2012-11-16 04:15:00
10:35 PM,35.1,35.1,100,30.37,7.0,Calm,Calm,-,N/A,,Clear,0,2012-11-16 04:35:00
10:55 PM,35.4,35.4,100,30.37,10.0,Calm,Calm,-,N/A,,Clear,0,2012-11-16 04:55:00
11:15 PM,34.3,34.3,100,30.37,7.0,Calm,Calm,-,N/A,,Clear,0,2012-11-16 05:15:00
11:35 PM,34.7,34.7,100,30.36,7.0,Calm,Calm,-,N/A,,Clear,0,2012-11-16 05:35:00
11:55 PM,35.1,35.1,100,30.36,7.0,Calm,Calm,-,N/A,,Clear,0,2012-11-16 05:55:00